Regional Weather Roundup
Issued by NWS

Home | Current Version | Previous Version | Text Only | Print | Product List | Glossary Off
Versions: 1 2 3 4 5 6 7 8 9 10 11 12 13 14 15 16 17 18 19 20 21 22 23 24 25 26 27 28 29 30 31 32 33 34 35 36 37 38 39 40 41 42 43 44 45 46 47 48 49 50

000
ASUS43 KFSD 220402
RWRSD

WEATHER ROUNDUP FOR SOUTH DAKOTA
NATIONAL WEATHER SERVICE SIOUX FALLS SD
1100 PM CDT MON AUG 21 2017

NOTE: "FAIR" INDICATES FEW OR NO CLOUDS BELOW 12,000 FEET WITH NO
SIGNIFICANT WEATHER AND/OR OBSTRUCTIONS TO VISIBILITY.


SDZ001>005-009-010-012>017-220500-
NORTHWEST AND NORTH CENTRAL SOUTH DAKOTA

CITY           SKY/WX    TMP DP  RH WIND       PRES   REMARKS
BUFFALO          N/A     65  39  38 NE6       30.14R
FAITH            N/A     63  46  54 NE5       30.17R
MOBRIDGE       CLEAR     60  47  61 N10       30.09R
$$

SDZ012>016-024>037-041>051-057-063-072>074-220500-
SOUTHWEST AND SOUTH CENTRAL SOUTH DAKOTA

CITY           SKY/WX    TMP DP  RH WIND       PRES   REMARKS
RAPID CTY ARPT CLEAR     58  40  51 NE9       30.20R
PIERRE         CLEAR     64  47  53 N13       30.09R
CUSTER         CLEAR     57  34  41 NE7       30.31R
ELLSWORTH AFB  CLEAR     64  40  40 CALM      30.20R
PHILIP         CLEAR     60  45  57 N8        30.14R
SPEARFISH      FAIR      57  39  51 S10       30.25R
WINNER         FAIR      61  54  77 NW7       30.11R
$$

SDZ004>011-016>023-039-040-220500-
NORTHEAST SOUTH DAKOTA

CITY           SKY/WX    TMP DP  RH WIND       PRES   REMARKS
ABERDEEN       CLEAR     59  51  75 N10       30.05R
WATERTOWN      CLEAR     63  56  78 NW12      30.01R
BROOKINGS      CLEAR     62  60  93 CALM      30.02R
SISSETON         N/A     62  56  80 NW12      29.98R
$$

SDZ017-020-022-023-036>040-048>070-220500-
SOUTHEAST SOUTH DAKOTA

CITY           SKY/WX    TMP DP  RH WIND       PRES   REMARKS
SIOUX FALLS    PTCLDY    63  63 100 CALM      30.01R
HURON          CLEAR     61  55  81 NW7       30.04R
CHAMBERLAIN    CLEAR     69  56  63 NW9       30.09R
MITCHELL       CLEAR     65  62  90 NW9       30.04R
YANKTON        CLEAR     65  64  97 SW7       30.03R
$$

ABBREVIATIONS USED IN REMARKS
   TC - TEMPERATURE IN CELSIUS
  WCI - WIND CHILL INDEX
   HX - HEAT INDEX
  VSB - VISIBILITY





USA.gov is the U.S. government's official web portal to all federal, state and local government web resources and services.